TimeCST,TemperatureF,Dew PointF,Humidity,Sea Level PressureIn,VisibilityMPH,Wind Direction,Wind SpeedMPH,Gust SpeedMPH,PrecipitationIn,Events,Conditions,WindDirDegrees,DateUTC
12:53 AM,28.9,27.0,92,30.44,10.0,Calm,Calm,-,N/A,,Clear,0,2013-01-04 06:53:00
1:53 AM,30.0,28.0,92,30.44,9.0,Calm,Calm,-,N/A,,Partly Cloudy,0,2013-01-04 07:53:00
2:53 AM,28.0,26.1,92,30.45,10.0,Calm,Calm,-,N/A,,Clear,0,2013-01-04 08:53:00
3:53 AM,27.0,26.1,96,30.45,8.0,Calm,Calm,-,N/A,,Clear,0,2013-01-04 09:53:00
4:53 AM,26.1,25.0,96,30.43,10.0,Calm,Calm,-,N/A,,Clear,0,2013-01-04 10:53:00
5:53 AM,24.8,24.8,100,30.44,9.0,Calm,Calm,-,N/A,,Clear,0,2013-01-04 11:53:00
6:53 AM,24.8,21.2,86,30.46,8.0,Calm,Calm,-,N/A,,Clear,0,2013-01-04 12:53:00
7:53 AM,28.0,27.0,96,30.49,9.0,Calm,Calm,-,N/A,,Clear,0,2013-01-04 13:53:00
8:53 AM,35.1,30.9,85,30.51,7.0,Calm,Calm,-,N/A,,Clear,0,2013-01-04 14:53:00
9:53 AM,39.9,33.1,77,30.52,10.0,Calm,Calm,-,N/A,,Clear,0,2013-01-04 15:53:00
10:53 AM,43.0,30.0,60,30.51,10.0,Calm,Calm,-,N/A,,Clear,0,2013-01-04 16:53:00
11:53 AM,45.0,30.0,56,30.48,10.0,NNE,5.8,-,N/A,,Clear,20,2013-01-04 17:53:00
12:53 PM,46.9,30.0,52,30.45,10.0,Variable,3.5,-,N/A,,Clear,0,2013-01-04 18:53:00
1:15 PM,48.2,30.2,50,30.43,2.0,NW,5.8,-,N/A,,Haze,320,2013-01-04 19:15:00
1:24 PM,48.2,30.2,50,30.43,10.0,WNW,5.8,-,N/A,,Clear,290,2013-01-04 19:24:00
1:53 PM,48.0,30.0,50,30.43,10.0,Calm,Calm,-,N/A,,Clear,0,2013-01-04 19:53:00
2:53 PM,48.9,26.1,41,30.42,10.0,Variable,6.9,-,N/A,,Clear,0,2013-01-04 20:53:00
3:53 PM,48.0,26.1,42,30.42,10.0,NNW,6.9,-,N/A,,Clear,340,2013-01-04 21:53:00
4:53 PM,46.0,28.0,50,30.42,10.0,NNW,4.6,-,N/A,,Clear,330,2013-01-04 22:53:00
5:53 PM,43.0,28.9,58,30.43,10.0,NW,3.5,-,N/A,,Partly Cloudy,320,2013-01-04 23:53:00
6:53 PM,41.0,33.1,73,30.43,10.0,Calm,Calm,-,N/A,,Overcast,0,2013-01-05 00:53:00
7:53 PM,42.1,34.0,73,30.42,10.0,Calm,Calm,-,N/A,,Overcast,0,2013-01-05 01:53:00
8:53 PM,43.0,34.0,71,30.43,10.0,Calm,Calm,-,N/A,,Overcast,0,2013-01-05 02:53:00
9:53 PM,42.1,34.0,73,30.43,10.0,Calm,Calm,-,N/A,,Overcast,0,2013-01-05 03:53:00
10:53 PM,37.9,33.1,83,30.42,10.0,Calm,Calm,-,N/A,,Clear,0,2013-01-05 04:53:00
11:53 PM,35.1,32.0,89,30.41,10.0,Calm,Calm,-,N/A,,Clear,0,2013-01-05 05:53:00